Weather History for Douglas, WY

Change the Weather History Date:

Friday, October 12, 2012

  Actual Average Record
Temperature  
Mean Temperature 52 °F 47 °F  
Max Temperature 73 °F 63 °F 74 °F (2003)
Min Temperature 31 °F 31 °F 19 °F (2009)
Degree Days  
Heating Degree Days 13 18  
Month to date heating degree days 265 193  
Since 1 July heating degree days 393 462  
Cooling Degree Days 0 0  
Month to date cooling degree days 0 0  
Year to date cooling degree days 831 486  
Moisture  
Dew Point 33 °F    
Average Humidity 55    
Maximum Humidity 85    
Minimum Humidity 24    
Precipitation  
Precipitation T in 0.04 in 0.16 in (2008)
Month to date precipitation 0.14 0.52  
Year to date precipitation 4.33 11.80  
Sea Level Pressure  
Sea Level Pressure 29.94 in    
Wind  
Wind Speed 12 mph (SSE)    
Max Wind Speed 28 mph    
Max Gust Speed 35 mph    
Visibility 10 miles    
Events Rain    
T = Trace of Precipitation, MM = Missing Value Source: NWS Daily Summary

Daily Weather History Graph

Daily Weather History Graph

Search for Another Location

Airport:

Trip Planner

Search our weather history database for the weather conditions in past years. The results will help you decide how hot, cold, wet, or windy it might be!

Date:

Astronomy

Oct. 12, 2012 Rise Set
Actual Time 7:11 AM MDT 6:23 PM MDT
Civil Twilight 6:43 AM MDT 6:51 PM MDT
Nautical Twilight 6:10 AM MDT 7:24 PM MDT
Astronomical Twilight 5:37 AM MDT 7:56 PM MDT
Moon 3:53 AM MDT (10/12) 4:37 PM MDT (10/12)
Length of Visible Light 12h 07m
Length of Day
11h 11m
Waning Crescent, 10% of the Moon is Illuminated
Oct 12
Waning Crescent
Oct 15
New
Oct 21
First Quarter
Oct 29
Full
Nov 6
Last Quarter

Hourly Weather History & Observations

Time (MDT) Temp. Windchill Dew Point Humidity Pressure Visibility Wind Dir Wind Speed Gust Speed Precip Events Conditions
12:53 AM 37.0 °F 25.9 °F 28.9 °F 73% 30.11 in 10.0 mi SE 23.0 mph 31.1 mph N/A   Clear
1:53 AM 36.0 °F 23.9 °F 28.9 °F 76% 30.09 in 10.0 mi SE 25.3 mph 32.2 mph N/A   Clear
2:53 AM 35.1 °F 23.8 °F 28.0 °F 76% 30.07 in 10.0 mi SE 20.7 mph 28.8 mph N/A   Clear
3:53 AM 34.0 °F 23.0 °F 28.0 °F 79% 30.05 in 10.0 mi SE 18.4 mph - N/A   Clear
4:53 AM 33.1 °F 22.2 °F 27.0 °F 78% 30.07 in 10.0 mi SE 17.3 mph - N/A   Partly Cloudy
5:53 AM 33.1 °F 22.6 °F 27.0 °F 78% 30.07 in 10.0 mi SE 16.1 mph - N/A   Clear
6:53 AM 30.9 °F 21.2 °F 26.1 °F 82% 30.09 in 10.0 mi SE 12.7 mph - N/A   Clear
7:53 AM 32.0 °F 22.5 °F 27.0 °F 82% 30.07 in 10.0 mi SE 12.7 mph - N/A   Clear
8:53 AM 37.9 °F 32.1 °F 28.0 °F 68% 30.06 in 10.0 mi SE 8.1 mph - N/A   Clear
10:53 AM 48.9 °F - 30.0 °F 48% 29.99 in 10.0 mi SE 8.1 mph - N/A   Clear
11:53 AM 57.0 °F - 30.9 °F 37% 29.92 in 10.0 mi SSE 6.9 mph - N/A   Clear
12:53 PM 64.0 °F - 32.0 °F 30% 29.87 in 10.0 mi South 5.8 mph - N/A   Clear
2:53 PM 71.1 °F - 32.0 °F 24% 29.79 in 10.0 mi SSE 8.1 mph - N/A   Scattered Clouds
4:53 PM 63.0 °F - 43.0 °F 48% 29.83 in 10.0 mi South 15.0 mph 26.5 mph N/A   Overcast
5:53 PM 60.1 °F - 46.9 °F 62% 29.84 in 10.0 mi South 11.5 mph - 0.00 in Rain Light Rain
6:53 PM 59.0 °F - 41.0 °F 51% 29.82 in 10.0 mi WSW 24.2 mph 33.4 mph 0.00 in   Partly Cloudy
8:53 PM 52.0 °F - 37.0 °F 57% 29.79 in 10.0 mi SE 5.8 mph - N/A   Mostly Cloudy
9:53 PM 55.9 °F - 37.0 °F 49% 29.78 in 10.0 mi West 4.6 mph - N/A   Scattered Clouds
10:53 PM 55.9 °F - 39.0 °F 53% 29.77 in 10.0 mi West 10.4 mph - N/A   Clear
11:53 PM 57.0 °F - 37.0 °F 47% 29.74 in 10.0 mi WNW 8.1 mph - N/A   Mostly Cloudy